Location: Newark
(34.6283°N, 36.0776°E)
Time: 01:42:59
(UTC+00:00)

Tiros 1 despin weight - Pass Details

Date: 26 September 2019
Orbit: 593 x 643 km, 48.2° (Epoch: 19 October)

Event Time Altitude Azimuth Distance (km) Brightness Sun altitude
Rises 10:41:05 0° 305° (NW) 2,885 ? 50.2°
Reaches altitude 10° 10:44:25 10° 330° (NNW) 1,967 ? 49.8°
Maximum altitude 10:46:53 14° 3° (N) 1,692 ? 49.6°
Drops below altitude 10° 10:49:20 10° 36° (NE) 1,951 ? 49.3°
Sets 10:52:37 0° 62° (ENE) 2,843 ? 48.9°
